• In Czech Republic
  • List of Countries
  • For 7 days
  • Water Temperature
  • Satellite Maps
  • Weather Map
  • Weather Widgets
  • user-avatar
    Login

    Hourly Weather Terlizzi

    Today, 24 November, Friday

    Time Temperature Precipitation Wind Pressure Humidity
    00:00 +12°C° 0 mm 1 mps 749 mmHg 82%
    01:00 +12°C° 0 mm 2 mps 749 mmHg 82%
    02:00 +12°C° 0 mm 2 mps 749 mmHg 82%
    03:00 +10°C° 0 mm 2 mps 749 mmHg 83%
    04:00 +10°C° 0 mm 2 mps 749 mmHg 83%
    05:00 +10°C° 0 mm 2 mps 749 mmHg 83%
    06:00 +10°C° 0 mm 2 mps 749 mmHg 83%
    07:00 +10°C° 0 mm 2 mps 749 mmHg 84%
    08:00 +12°C° 0 mm 2 mps 749 mmHg 77%
    09:00 +14°C° 0 mm 2 mps 749 mmHg 71%
    10:00 +15°C° 0 mm 2 mps 750 mmHg 65%
    11:00 +16°C° 0 mm 2 mps 749 mmHg 60%
    12:00 +16°C° 0 mm 1 mps 749 mmHg 56%
    13:00 +18°C° 0 mm 1 mps 749 mmHg 51%
    14:00 +18°C° 0 mm 1 mps 749 mmHg 54%
    15:00 +16°C° 0 mm 1 mps 749 mmHg 56%
    16:00 +15°C° 0 mm 1 mps 749 mmHg 59%
    17:00 +15°C° 0 mm 1 mps 749 mmHg 63%
    18:00 +14°C° 0 mm 1 mps 749 mmHg 68%
    19:00 +13°C° 0 mm 1 mps 749 mmHg 72%
    20:00 +13°C° 0 mm 1 mps 749 mmHg 73%
    21:00 +12°C° 0 mm 1 mps 749 mmHg 74%
    22:00 +12°C° 0 mm 1 mps 749 mmHg 75%
    23:00 +12°C° 0 mm 1 mps 749 mmHg 76%

    Tomorrow, 25 November, Saturday

    Time Temperature Precipitation Wind Pressure Humidity
    00:00 +12°C° 0 mm 1 mps 749 mmHg 77%
    01:00 +11°C° 0 mm 1 mps 749 mmHg 78%
    02:00 +11°C° 0 mm 1 mps 749 mmHg 78%
    03:00 +10°C° 0 mm 2 mps 748 mmHg 79%
    04:00 +10°C° 0 mm 2 mps 748 mmHg 80%
    05:00 +10°C° 0 mm 2 mps 748 mmHg 80%
    06:00 +10°C° 0 mm 2 mps 748 mmHg 80%
    07:00 +10°C° 0 mm 2 mps 748 mmHg 80%
    08:00 +12°C° 0 mm 2 mps 748 mmHg 74%
    09:00 +13°C° 0 mm 3 mps 748 mmHg 68%
    10:00 +16°C° 0 mm 3 mps 748 mmHg 63%
    11:00 +16°C° 0 mm 3 mps 747 mmHg 60%
    12:00 +17°C° 0 mm 3 mps 747 mmHg 58%
    13:00 +18°C° 0 mm 4 mps 746 mmHg 56%
    14:00 +18°C° 0 mm 4 mps 746 mmHg 60%
    15:00 +17°C° 0 mm 4 mps 746 mmHg 63%
    16:00 +15°C° 0 mm 4 mps 746 mmHg 67%
    17:00 +15°C° 0 mm 4 mps 746 mmHg 71%
    18:00 +14°C° 0 mm 4 mps 746 mmHg 75%
    19:00 +13°C° 0 mm 4 mps 745 mmHg 78%
    20:00 +13°C° 0 mm 4 mps 745 mmHg 80%
    21:00 +13°C° 0 mm 4 mps 745 mmHg 82%
    22:00 +12°C° 0 mm 4 mps 745 mmHg 84%
    23:00 +12°C° 0 mm 4 mps 745 mmHg 82%

    Day after tomorrow, 26 November, Sunday

    Time Temperature Precipitation Wind Pressure Humidity
    00:00 +13°C° 0 mm 4 mps 745 mmHg 80%
    01:00 +13°C° 0 mm 4 mps 745 mmHg 78%
    02:00 +13°C° 0 mm 4 mps 744 mmHg 77%
    03:00 +13°C° 0 mm 4 mps 744 mmHg 76%
    04:00 +13°C° 0 mm 4 mps 743 mmHg 75%
    05:00 +13°C° 0.1 mm 5 mps 743 mmHg 76%
    06:00 +13°C° 0.1 mm 5 mps 743 mmHg 77%
    07:00 +13°C° 0.1 mm 6 mps 743 mmHg 78%
    08:00 +14°C° 0.2 mm 6 mps 743 mmHg 74%
    09:00 +14°C° 0.2 mm 6 mps 743 mmHg 70%
    10:00 +15°C° 0.2 mm 7 mps 743 mmHg 67%
    11:00 +16°C° 0 mm 7 mps 742 mmHg 62%
    12:00 +16°C° 0 mm 6 mps 742 mmHg 57%
    13:00 +17°C° 0 mm 6 mps 741 mmHg 52%
    14:00 +16°C° 0 mm 6 mps 741 mmHg 53%
    15:00 +15°C° 0 mm 6 mps 741 mmHg 53%
    16:00 +15°C° 0 mm 6 mps 741 mmHg 54%
    17:00 +13°C° 0 mm 6 mps 741 mmHg 56%
    18:00 +12°C° 0 mm 5 mps 741 mmHg 59%
    19:00 +10°C° 0 mm 5 mps 741 mmHg 62%
    20:00 +10°C° 0 mm 5 mps 741 mmHg 63%
    21:00 +9°C° 0 mm 5 mps 741 mmHg 63%
    22:00 +9°C° 0 mm 5 mps 741 mmHg 64%
    23:00 +8°C° 0 mm 5 mps 741 mmHg 66%

    27 November, Monday

    Time Temperature Precipitation Wind Pressure Humidity
    00:00 +8°C° 0 mm 5 mps 741 mmHg 67%
    01:00 +8°C° 0 mm 4 mps 740 mmHg 69%
    02:00 +8°C° 0.1 mm 5 mps 740 mmHg 71%
    03:00 +8°C° 0.1 mm 5 mps 740 mmHg 73%
    04:00 +8°C° 0.1 mm 5 mps 740 mmHg 75%
    05:00 +8°C° 0.4 mm 6 mps 741 mmHg 77%
    06:00 +8°C° 0.4 mm 6 mps 741 mmHg 79%
    07:00 +8°C° 0.4 mm 6 mps 742 mmHg 82%
    08:00 +8°C° 0.5 mm 7 mps 743 mmHg 78%
    09:00 +9°C° 0.5 mm 8 mps 743 mmHg 74%
    10:00 +8°C° 0.5 mm 9 mps 744 mmHg 71%
    11:00 +8°C° 0.2 mm 9 mps 744 mmHg 68%
    12:00 +8°C° 0.2 mm 10 mps 744 mmHg 65%
    13:00 +8°C° 0.2 mm 10 mps 744 mmHg 62%
    14:00 +8°C° 0 mm 10 mps 744 mmHg 63%
    15:00 +7°C° 0 mm 9 mps 745 mmHg 64%
    16:00 +7°C° 0 mm 9 mps 745 mmHg 66%
    17:00 +6°C° 0 mm 9 mps 745 mmHg 67%
    18:00 +6°C° 0 mm 9 mps 745 mmHg 68%
    19:00 +6°C° 0 mm 9 mps 746 mmHg 69%
    20:00 +5°C° 0 mm 9 mps 746 mmHg 69%
    21:00 +5°C° 0 mm 8 mps 746 mmHg 69%
    22:00 +5°C° 0 mm 8 mps 746 mmHg 70%
    23:00 +5°C° 0 mm 8 mps 746 mmHg 70%

    28 November, Tuesday

    Time Temperature Precipitation Wind Pressure Humidity
    00:00 +5°C° 0 mm 8 mps 746 mmHg 70%
    01:00 +4°C° 0 mm 8 mps 746 mmHg 70%
    02:00 +4°C° 0 mm 8 mps 746 mmHg 70%
    03:00 +4°C° 0 mm 8 mps 746 mmHg 71%
    04:00 +4°C° 0 mm 7 mps 745 mmHg 71%
    05:00 +4°C° 0 mm 7 mps 746 mmHg 71%
    06:00 +4°C° 0 mm 7 mps 746 mmHg 72%
    07:00 +4°C° 0 mm 7 mps 746 mmHg 72%
    08:00 +4°C° 0 mm 7 mps 746 mmHg 69%
    09:00 +5°C° 0 mm 7 mps 746 mmHg 66%
    10:00 +6°C° 0 mm 7 mps 746 mmHg 63%
    11:00 +6°C° 0 mm 7 mps 746 mmHg 61%
    12:00 +8°C° 0 mm 7 mps 745 mmHg 59%
    13:00 +8°C° 0 mm 7 mps 745 mmHg 57%
    14:00 +8°C° 0 mm 6 mps 745 mmHg 58%
    15:00 +8°C° 0 mm 5 mps 745 mmHg 59%
    16:00 +8°C° 0 mm 5 mps 745 mmHg 60%
    17:00 +7°C° 0 mm 4 mps 745 mmHg 62%
    18:00 +6°C° 0 mm 4 mps 745 mmHg 65%
    19:00 +5°C° 0 mm 3 mps 745 mmHg 68%
    20:00 +5°C° 0 mm 3 mps 745 mmHg 67%
    21:00 +5°C° 0 mm 3 mps 745 mmHg 67%
    22:00 +5°C° 0 mm 3 mps 745 mmHg 67%
    23:00 +4°C° 0 mm 3 mps 745 mmHg 66%

    29 November, Wednesday

    Time Temperature Precipitation Wind Pressure Humidity
    00:00 +4°C° 0 mm 3 mps 744 mmHg 65%
    01:00 +5°C° 0 mm 2 mps 744 mmHg 64%
    02:00 +5°C° 0 mm 2 mps 744 mmHg 64%
    03:00 +4°C° 0 mm 2 mps 744 mmHg 64%
    04:00 +4°C° 0 mm 2 mps 744 mmHg 64%
    05:00 +3°C° 0 mm 3 mps 744 mmHg 66%
    06:00 +3°C° 0 mm 3 mps 744 mmHg 67%
    07:00 +3°C° 0 mm 3 mps 744 mmHg 69%
    08:00 +5°C° 0 mm 3 mps 744 mmHg 65%
    09:00 +7°C° 0 mm 4 mps 744 mmHg 62%
    10:00 +8°C° 0 mm 4 mps 744 mmHg 59%
    11:00 +10°C° 0 mm 4 mps 744 mmHg 57%
    12:00 +11°C° 0 mm 4 mps 743 mmHg 54%
    13:00 +12°C° 0 mm 5 mps 742 mmHg 52%
    14:00 +12°C° 0 mm 5 mps 742 mmHg 55%
    15:00 +10°C° 0 mm 5 mps 742 mmHg 59%
    16:00 +10°C° 0 mm 6 mps 741 mmHg 62%
    17:00 +10°C° 0 mm 6 mps 741 mmHg 66%
    18:00 +9°C° 0 mm 7 mps 741 mmHg 70%
    19:00 +9°C° 0 mm 7 mps 740 mmHg 74%
    20:00 +9°C° 0.1 mm 7 mps 740 mmHg 72%
    21:00 +10°C° 0.1 mm 8 mps 740 mmHg 71%
    22:00 +10°C° 0.1 mm 8 mps 739 mmHg 69%
    23:00 +10°C° 0.2 mm 8 mps 738 mmHg 68%
    Show more